Regional Weather Roundup
Issued by NWS Wilmington, NC

Home | Current Version | Previous Version | Text Only | Print | Product List | Glossary On
Versions: 1 2 3 4 5 6 7 8 9 10 11 12 13 14 15 16 17 18 19 20 21 22 23 24 25 26 27 28 29 30 31 32 33 34 35 36 37 38 39 40 41 42 43 44 45 46 47 48 49 50
000
ASUS42 KILM 300413
RWRILM
RWRILM
REGIONAL HOURLY WEATHER ROUNDUP
NATIONAL WEATHER SERVICE WILMINGTON NC
1200 AM EDT TUE JUN 30 2015

NOTE: "FAIR" INDICATES FEW OR NO CLOUDS BELOW 12,000 FEET WITH NO
SIGNIFICANT WEATHER AND/OR OBSTRUCTIONS TO VISIBILITY.

...............WFO WILMINGTON COUNTY WARNING AREA...............

......COASTAL NC AND SC COUNTIES......

CITY           SKY/WX    TMP DP  RH WIND       PRES   REMARKS
WILMINGTON     CLEAR     77  70  79 S7        29.98R
N MYRTLE BEACH CLEAR     79  69  71 SW9       29.98S
MYRTLE BEACH   CLEAR     79  68  69 SW7       30.00S

......INLAND NC AND SC COUNTIES.......

CITY           SKY/WX    TMP DP  RH WIND       PRES   REMARKS
LUMBERTON      CLEAR     72  66  81 CALM      29.96S
ELIZABETHTOWN  CLEAR     74  69  83 CALM      29.97S
WHITEVILLE     CLEAR     74  69  82 SW3       29.97S
FLORENCE       CLEAR     74  60  61 CALM      29.96F
DARLINGTON     PTCLDY    73  63  68 SW5       29.98S

....................REST OF NORTH CAROLINA......................

.........EASTERN NC.........

CITY           SKY/WX    TMP DP  RH WIND       PRES   REMARKS
CAPE HATTERAS  PTCLDY    77  73  87 CALM      29.99R
JACKSONVILLE   CLEAR     72  66  83 SW3       29.98S
MOREHEAD CITY  PTCLDY    79  73  82 SW9       29.99R
KENANSVILLE    CLEAR     71  69  94 CALM      29.98S
NEW BERN       CLEAR     75  72  90 S5        29.99R
ELIZABETH CITY PTCLDY    75  71  87 SE7       29.97F

.........CENTRAL NC.........

CITY           SKY/WX    TMP DP  RH WIND       PRES   REMARKS
RALEIGH DURHAM PTCLDY    74  67  78 S5        29.96F
ROCKY MOUNT    CLEAR     72  67  84 CALM      29.96F
ROANOKE RAPIDS NOT AVBL
FAYETTEVILLE   CLEAR     73  65  75 S5        29.96S
HOFFMAN        CLEAR     74  62  67 S7        29.99F

.........WESTERN NC.........

CITY           SKY/WX    TMP DP  RH WIND       PRES   REMARKS
CHARLOTTE      CLOUDY    74  59  59 SW6       29.98F
GREENSBORO     PTCLDY    73  60  63 S8        29.96F
HICKORY        NOT AVBL
BOONE          NOT AVBL
ASHEVILLE      NOT AVBL

.....................REST OF SOUTH CAROLINA.....................

.........EASTERN SC.........

CITY           SKY/WX    TMP DP  RH WIND       PRES   REMARKS
CHARLESTON     CLEAR     77  72  84 SW8       29.99F
BEAUFORT MCAS  CLEAR     78  71  79 S5        30.01S
HILTON HEAD    CLEAR     79  75  89 S3        30.02F

.........CENTRAL SC.........

CITY           SKY/WX    TMP DP  RH WIND       PRES   REMARKS
COLUMBIA       PTCLDY    75  64  68 W3        29.98S
ORANGEBURG     CLEAR     70  63  78 SW3       29.99F
SUMTER SHAW    CLEAR     75  62  62 S5        29.96F

.........WESTERN SC.........

CITY           SKY/WX    TMP DP  RH WIND       PRES   REMARKS
GREENVILLE     NOT AVBL
ROCK HILL      CLOUDY    71  63  75 SW3       29.99F
ANDERSON       PTCLDY    74  62  66 S6        29.99F
CLEMSON        NOT AVBL
GREENWOOD      CLEAR     73  62  68 SW5       30.01S


...................COASTAL AND OFFSHORE REPORTS..................

................LOCAL PIERS AND NC RESERVE................


STATION/POSITION TIME  SKY/WX   TEMP    WIND        PRES    VSBY
                                AIR SEA DIR/SP/G
                 (UTC)          (F)     (DEG/KT/KT) (MB)    (MI)
JOHNY MRCER PIER 0300            79 82  220/ 11/ 12 1014.6R
NC RESRV MASNBRO NOT AVBL
OCEAN CREST PIER NOT AVBL
SPRINGMAID  PIER 0300            80 84  210/ 13/ 15 1015.3R


................COASTAL AND OFFSHORE BUOYS................


STATION/POSITION TIME  SKY/WX   TEMP    WIND        PRES    VSBY
                                AIR SEA DIR/SP/G
                 (UTC)          (F)     (DEG/KT/KT) (MB)    (MI)
DIMNDSHOAL 41025 0350            80 80  250/ 10/ 12 1015.3S
WVE H/P(F/S)=  4/ 8 WND WVE H/P(F/S)=  2/ 5 SWL H/P/D(F/S/D)=  3/150/ 8

CAPE LOOKOUT     0400            79     230/  6/ 11 1015.3R
ONSLOW BAY 41036 NOT AVBL
5 WRITEBCH 41038 0308            80 79  230/ 14/ 16 1015.0R
MASONBORO  41110 0319               79                N/A
WVE H/P(F/S)=  3/ 8 WND WVE H/P(F/S)=  3/ 8

WILM HARBR 41108 0311               81                N/A
WVE H/P(F/S)=  4/ 7 WND WVE H/P(F/S)=  3/ 7

27WRITEBCH 41037 0300               81  240/ 16/ 17   N/A
FRYING PAN 41013 0350            82 80  220/ 14/ 17 1015.8R
WVE H/P(F/S)=  4/ 7 WND WVE H/P(F/S)=  3/ 4 SWL H/P/D(F/S/D)=  2/150/ 7

SUNST NRSH 41024 0308            81     230/ 16/ 21 1014.7
CAPRS NRSH 41029 0308            81     230/ 17/ 21 1015.9R
EDISTO     41004 0350            82 83  220/ 16/ 17 1015.4F
WVE H/P(F/S)=  4/ 8 WND WVE H/P(F/S)=  3/ 4 SWL H/P/D(F/S/D)=  3/ 8



..........OFFSHORE BUOYS BEYOND 100 NM OFFSHORE...........
.....IN A TRIANGLE---HAT TO BERMUDA TO BAHAMAS TO HAT.....


STATION/POSITION TIME  SKY/WX   TEMP    WIND        PRES    VSBY
                                AIR SEA DIR/SP/G
                 (UTC)          (F)     (DEG/KT/KT) (MB)    (MI)
150E HAT   41001 NOT AVBL
W BERMUDA  41048 0350            81 81  170/ 12/ 16 1021.0F
WVE H/P(F/S)=  5/ 8 WND WVE H/P(F/S)=  3/ 6 SWL H/P/D(F/S/D)=  3/280/ 8

ATLANTIC S 41049 0350            82 83  130/  8/ 10 1025.8F
WVE H/P(F/S)=  3/ 8 WND WVE H/P(F/S)=  2/ 4 SWL H/P/D(F/S/D)=  3/120/ 8

E BAHAMAS  41046 0350            82 83  100/ 14/ 17 1022.6S
WVE H/P(F/S)=  5/ 7 WND WVE H/P(F/S)=  3/ 5 SWL H/P/D(F/S/D)=  3/110/ 7

NE BAHAMAS 41047 0350            79 83  300/ 16/ 19 1023.1F
WVE H/P(F/S)=  5/ 5 WND WVE H/P(F/S)=  5/ 5 SWL H/P/D(F/S/D)=  3/130/ 8

120E CANVRL41010 0320            81 84  240/ 10/ 12 1018.3R

END



USA.gov is the U.S. government's official web portal to all federal, state and local government web resources and services.